Weather History for Lake Charles Regional, LA

Change the Weather History Date:

Thursday, June 26, 2014

  Actual Average Record
Temperature  
Mean Temperature 80 °F 82 °F  
Max Temperature 87 °F 90 °F 103 °F (1930)
Min Temperature 73 °F 74 °F 60 °F (1912)
Degree Days  
Heating Degree Days 0 0  
Month to date heating degree days 0 0  
Since 1 June heating degree days 0 0  
Since 1 July heating degree days 1962 1490  
Cooling Degree Days 15 17  
Month to date cooling degree days 414 411  
Year to date cooling degree days 853 949  
Since 1 June cooling degree days 414 411  
Growing Degree Days 30 (Base 50)    
Moisture  
Dew Point 74 °F    
Average Humidity 82    
Maximum Humidity 94    
Minimum Humidity 69    
Precipitation  
Precipitation 0.01 in 0.24 in 4.14 in (1919)
Month to date precipitation 7.60 5.91  
Year to date precipitation 22.77 26.79  
Snow  
Snow 0.00 in 0.00 in 0.00 in ()
Month to date snowfall 0.0 0.0  
Since 1 June snowfall 0.0 0.0  
Since 1 July snowfall 0.1 0.1  
Snow Depth 0.00 in    
Sea Level Pressure  
Sea Level Pressure 30.04 in    
Wind  
Wind Speed 7 mph (SSE)    
Max Wind Speed 17 mph    
Max Gust Speed 26 mph    
Visibility 10 miles    
Events Rain , Thunderstorm    
T = Trace of Precipitation, MM = Missing Value Source: NWS Daily Summary

Daily Weather History Graph

Daily Weather History Graph

Search for Another Location

Airport:

Trip Planner

Search our weather history database for the weather conditions in past years. The results will help you decide how hot, cold, wet, or windy it might be!

Date:

Astronomy

Jun. 26, 2014 Rise Set
Actual Time 6:13 AM CDT 8:18 PM CDT
Civil Twilight 5:45 AM CDT 8:45 PM CDT
Nautical Twilight 5:12 AM CDT 9:19 PM CDT
Astronomical Twilight 4:36 AM CDT 9:54 PM CDT
Moon 5:47 AM CDT (6/26) 7:45 PM CDT (6/26)
Length of Visible Light 14h 59m
Length of Day
14h 04m
Waning Crescent, 0% of the Moon is Illuminated
Jun 26
Waning Crescent
Jun 27
New
Jul 5
First Quarter
Jul 12
Full
Jul 18
Last Quarter

Hourly Weather History & Observations

Time (CDT) Temp. Heat Index Dew Point Humidity Pressure Visibility Wind Dir Wind Speed Gust Speed Precip Events Conditions
12:53 AM 73.0 °F - 72.0 °F 96% 30.07 in 10.0 mi East 3.5 mph - 0.00 in Rain Light Rain
1:53 AM 73.0 °F - 72.0 °F 96% 30.06 in 10.0 mi East 3.5 mph - 0.00 in   Clear
2:53 AM 73.0 °F - 72.0 °F 96% 30.04 in 10.0 mi ESE 5.8 mph - N/A   Clear
3:53 AM 73.0 °F - 72.0 °F 96% 30.04 in 10.0 mi Calm Calm - N/A   Clear
4:53 AM 73.0 °F - 72.0 °F 96% 30.04 in 10.0 mi Calm Calm - N/A   Clear
5:53 AM 73.9 °F - 72.0 °F 93% 30.05 in 10.0 mi ESE 3.5 mph - N/A   Clear
6:53 AM 73.9 °F - 72.0 °F 93% 30.07 in 10.0 mi SE 5.8 mph - N/A   Clear
7:53 AM 75.0 °F - 73.0 °F 94% 30.08 in 10.0 mi SE 6.9 mph - N/A   Partly Cloudy
8:53 AM 79.0 °F - 75.0 °F 88% 30.09 in 10.0 mi ESE 4.6 mph - 0.00 in Rain Light Rain
9:53 AM 79.0 °F - 75.9 °F 90% 30.08 in 10.0 mi East 5.8 mph - 0.01 in   Mostly Cloudy
10:24 AM 80.1 °F 85.8 °F 77.0 °F 90% 30.05 in 10.0 mi SE 9.2 mph - 0.00 in Rain Light Rain
10:53 AM 81.0 °F 87.9 °F 77.0 °F 88% 30.08 in 10.0 mi SE 8.1 mph - 0.00 in   Partly Cloudy
11:53 AM 84.0 °F 93.7 °F 77.0 °F 79% 30.06 in 10.0 mi SE 6.9 mph - N/A   Mostly Cloudy
12:04 PM 84.0 °F 93.7 °F 77.0 °F 79% 30.04 in 10.0 mi SSE 6.9 mph - N/A   Mostly Cloudy
12:11 PM 84.0 °F 93.7 °F 77.0 °F 79% 30.03 in 10.0 mi South 6.9 mph - N/A   Mostly Cloudy
12:22 PM 86.0 °F 96.9 °F 77.0 °F 74% 30.03 in 10.0 mi SE 8.1 mph - N/A   Mostly Cloudy
12:32 PM 86.0 °F 96.0 °F 75.9 °F 72% 30.02 in 10.0 mi South 11.5 mph - N/A   Mostly Cloudy
12:53 PM 86.0 °F 96.0 °F 75.9 °F 72% 30.03 in 10.0 mi SSE 12.7 mph - N/A   Mostly Cloudy
1:53 PM 84.9 °F 94.1 °F 75.9 °F 74% 30.01 in 10.0 mi South 13.8 mph 19.6 mph N/A   Mostly Cloudy
2:03 PM 86.0 °F 95.1 °F 75.0 °F 70% 29.98 in 10.0 mi SSE 15.0 mph - N/A   Mostly Cloudy
2:35 PM 86.0 °F 96.0 °F 75.9 °F 72% 29.97 in 10.0 mi South 12.7 mph 18.4 mph N/A Thunderstorm Mostly Cloudy
2:53 PM 84.9 °F 93.3 °F 75.0 °F 72% 29.99 in 10.0 mi South 16.1 mph 21.9 mph N/A Thunderstorm Mostly Cloudy
3:53 PM 81.0 °F 86.7 °F 75.0 °F 82% 29.99 in 9.0 mi South 9.2 mph - 0.00 in Thunderstorm Scattered Clouds
4:09 PM 82.0 °F 87.4 °F 73.0 °F 74% 29.97 in 9.0 mi SSW 12.7 mph - N/A   Partly Cloudy
4:53 PM 82.0 °F 86.3 °F 71.1 °F 69% 30.01 in 10.0 mi SSW 13.8 mph 21.9 mph N/A   Partly Cloudy
5:53 PM 80.1 °F 83.6 °F 71.1 °F 74% 30.03 in 10.0 mi SW 8.1 mph - N/A   Partly Cloudy
6:53 PM 79.0 °F - 71.1 °F 77% 30.02 in 10.0 mi WNW 3.5 mph - N/A   Clear
7:53 PM 78.1 °F - 73.0 °F 84% 30.02 in 9.0 mi Calm Calm - N/A   Clear
8:53 PM 77.0 °F - 73.0 °F 88% 30.03 in 9.0 mi SE 6.9 mph - N/A   Clear
9:53 PM 75.9 °F - 73.0 °F 91% 30.04 in 9.0 mi SE 9.2 mph - N/A   Clear
10:53 PM 75.0 °F - 73.0 °F 94% 30.04 in 8.0 mi SSE 5.8 mph - 0.00 in   Clear
11:53 PM 77.0 °F - 66.9 °F 71% 30.04 in 10.0 mi South 8.1 mph - N/A   Clear